KB7YYZ Weather Reports


Display with metric or nautical units.
time (UTC)temp
F
wind
direction
speed
MPH
gust
MPH
rain 1hr
in
rain 24hr
in
rain mn
in
humidity
%
barometer
mb
20190421004054 94 68 6.0 11.0 0.00 0.00 0.00 9 1017.6
20190421003551 95 90 5.0 11.0 0.00 0.00 0.00 9 1017.4
20190421003054 96 68 5.0 7.0 0.00 0.00 0.00 8 1017.4
20190421002557 96 68 5.0 8.0 0.00 0.00 0.00 9 1017.4
20190421002051 97 68 6.0 7.0 0.00 0.00 0.00 8 1017.4
20190421001551 98 113 6.0 9.0 0.00 0.00 0.00 8 1016.9
20190421001057 99 45 5.0 12.0 0.00 0.00 0.00 8 1016.9
20190421000615 99 68 5.0 5.0 0.00 0.00 0.00 8 1016.8
20190421000051 99 45 6.0 13.0 0.00 0.00 0.00 8 1016.8
20190420235551 100 68 6.0 13.0 0.00 0.00 0.00 8 1017.0
20190420235051 99 68 6.0 7.0 0.00 0.00 0.00 8 1016.9
20190420234551 100 68 6.0 11.0 0.00 0.00 0.00 8 1016.9
20190420234057 100 45 6.0 9.0 0.00 0.00 0.00 8 1016.9
20190420233554 99 45 7.0 11.0 0.00 0.00 0.00 8 1016.7
20190420233054 99 68 8.0 17.0 0.00 0.00 0.00 8 1016.6
20190420232551 99 68 7.0 15.0 0.00 0.00 0.00 8 1016.6
20190420232057 99 45 7.0 11.0 0.00 0.00 0.00 8 1016.6
20190420231557 99 68 7.0 12.0 0.00 0.00 0.00 8 1016.6
20190420231054 99 68 6.0 11.0 0.00 0.00 0.00 8 1016.6
20190420230554 99 68 6.0 11.0 0.00 0.00 0.00 8 1016.6
20190420230051 98 68 5.0 10.0 0.00 0.00 0.00 8 1016.5
20190420225557 98 68 6.0 9.0 0.00 0.00 0.00 8 1016.7
20190420225057 97 45 6.0 10.0 0.00 0.00 0.00 8 1016.7
20190420224551 97 135 6.0 10.0 0.00 0.00 0.00 9 1016.7
20190420224051 96 68 8.0 11.0 0.00 0.00 0.00 8 1016.6
20190420223557 96 68 9.0 15.0 0.00 0.00 0.00 9 1016.9
20190420223051 96 68 9.0 15.0 0.00 0.00 0.00 8 1016.9
20190420222551 96 45 8.0 13.0 0.00 0.00 0.00 8 1016.9
20190420222054 96 23 7.0 7.0 0.00 0.00 0.00 9 1016.9
20190420221554 95 68 9.0 17.0 0.00 0.00 0.00 8 1017.1
20190420221051 95 23 9.0 15.0 0.00 0.00 0.00 8 1017.1
20190420220551 95 23 9.0 15.0 0.00 0.00 0.00 8 1017.1
20190420220057 94 0 7.0 9.0 0.00 0.00 0.00 9 1017.0
20190420215557 94 45 7.0 9.0 0.00 0.00 0.00 9 1017.2
20190420215057 94 68 7.0 11.0 0.00 0.00 0.00 8 1017.1
20190420214554 94 90 8.0 11.0 0.00 0.00 0.00 8 1017.1
20190420214057 94 45 9.0 14.0 0.00 0.00 0.00 8 1017.1
20190420213551 94 68 9.0 11.0 0.00 0.00 0.00 9 1017.2
20190420213054 94 45 8.0 12.0 0.00 0.00 0.00 9 1017.1
20190420212557 94 45 8.0 10.0 0.00 0.00 0.00 9 1017.1
20190420212051 94 68 8.0 11.0 0.00 0.00 0.00 9 1017.1
20190420211557 94 23 7.0 11.0 0.00 0.00 0.00 9 1017.2
20190420211054 94 45 7.0 12.0 0.00 0.00 0.00 10 1017.1
20190420210554 94 23 8.0 10.0 0.00 0.00 0.00 10 1017.1
20190420210054 94 45 8.0 12.0 0.00 0.00 0.00 10 1017.1
20190420205557 94 0 9.0 12.0 0.00 0.00 0.00 9 1017.1
20190420205054 94 45 11.0 20.0 0.00 0.00 0.00 9 1017.1
20190420204557 94 338 11.0 20.0 0.00 0.00 0.00 9 1017.0
20190420204057 94 23 9.0 15.0 0.00 0.00 0.00 9 1017.0
20190420203551 94 23 9.0 16.0 0.00 0.00 0.00 9 1016.9
20190420203051 93 45 9.0 15.0 0.00 0.00 0.00 10 1016.8
20190420202551 93 0 9.0 15.0 0.00 0.00 0.00 10 1016.8
20190420202054 93 23 8.0 14.0 0.00 0.00 0.00 10 1016.8
20190420201557 93 23 8.0 11.0 0.00 0.00 0.00 10 1017.1
20190420201051 92 45 10.0 14.0 0.00 0.00 0.00 10 1017.0
20190420200554 92 45 10.0 15.0 0.00 0.00 0.00 10 1017.0
20190420200054 92 23 10.0 14.0 0.00 0.00 0.00 10 1017.0
20190420195551 92 45 10.0 12.0 0.00 0.00 0.00 10 1017.2
20190420195051 92 0 8.0 15.0 0.00 0.00 0.00 10 1017.2
20190420194557 91 0 9.0 9.0 0.00 0.00 0.00 11 1017.2
20190420194054 92 68 9.0 15.0 0.00 0.00 0.00 10 1017.2
20190420193551 92 45 7.0 15.0 0.00 0.00 0.00 10 1017.1
20190420193051 91 68 8.0 8.0 0.00 0.00 0.00 10 1017.1
20190420192551 91 315 9.0 15.0 0.00 0.00 0.00 10 1017.1
20190420192054 90 45 7.0 10.0 0.00 0.00 0.00 10 1017.1
20190420191557 90 23 7.0 10.0 0.00 0.00 0.00 10 1017.2
20190420191057 90 23 9.0 10.0 0.00 0.00 0.00 10 1017.2
20190420190554 90 23 9.0 13.0 0.00 0.00 0.00 10 1017.1
20190420190054 90 23 8.0 14.0 0.00 0.00 0.00 10 1017.1
20190420185557 89 23 7.0 10.0 0.00 0.00 0.00 12 1017.3
20190420185054 89 45 8.0 12.0 0.00 0.00 0.00 11 1017.3
20190420184557 89 45 8.0 11.0 0.00 0.00 0.00 13 1017.2
20190420184054 89 45 8.0 16.0 0.00 0.00 0.00 11 1017.2
20190420183554 89 45 7.0 12.0 0.00 0.00 0.00 11 1016.9
20190420183057 89 45 9.0 10.0 0.00 0.00 0.00 12 1016.9
20190420182551 89 45 9.0 13.0 0.00 0.00 0.00 13 1016.9
20190420182057 89 23 8.0 13.0 0.00 0.00 0.00 13 1016.9
20190420181557 88 45 7.0 11.0 0.00 0.00 0.00 14 1017.0
20190420181057 88 45 7.0 11.0 0.00 0.00 0.00 14 1017.0
20190420180551 88 45 7.0 10.0 0.00 0.00 0.00 15 1017.0
20190420180054 87 338 8.0 20.0 0.00 0.00 0.00 15 1017.0
20190420175551 87 315 7.0 20.0 0.00 0.00 0.00 15 1017.0
20190420175051 87 338 6.0 12.0 0.00 0.00 0.00 15 1017.0
20190420174557 87 338 7.0 7.0 0.00 0.00 0.00 15 1017.0
20190420174054 86 338 8.0 12.0 0.00 0.00 0.00 15 1017.0
20190420173551 86 338 9.0 16.0 0.00 0.00 0.00 15 1017.0
20190420173051 85 338 9.0 17.0 0.00 0.00 0.00 16 1017.0
20190420172554 85 315 9.0 17.0 0.00 0.00 0.00 16 1017.0
20190420172057 85 0 9.0 12.0 0.00 0.00 0.00 16 1017.0
20190420171551 85 0 9.0 13.0 0.00 0.00 0.00 16 1017.2
20190420171051 84 23 7.0 17.0 0.00 0.00 0.00 17 1017.1
20190420170551 84 338 6.0 10.0 0.00 0.00 0.00 19 1017.1
20190420170057 83 315 6.0 8.0 0.00 0.00 0.00 19 1017.1
20190420165554 83 23 6.0 8.0 0.00 0.00 0.00 19 1017.0
20190420165051 82 315 5.0 8.0 0.00 0.00 0.00 19 1017.0
20190420164557 82 338 6.0 11.0 0.00 0.00 0.00 19 1017.0
20190420164054 82 0 6.0 12.0 0.00 0.00 0.00 19 1017.0
20190420163557 82 315 6.0 12.0 0.00 0.00 0.00 19 1016.9
20190420163057 81 23 7.0 13.0 0.00 0.00 0.00 19 1016.9
20190420162551 81 338 7.0 13.0 0.00 0.00 0.00 19 1016.9
20190420162057 80 338 7.0 9.0 0.00 0.00 0.00 20 1016.9
20190420161551 80 315 7.0 13.0 0.00 0.00 0.00 20 1017.2
20190420161051 80 68 6.0 11.0 0.00 0.00 0.00 21 1017.2
20190420160554 79 315 6.0 12.0 0.00 0.00 0.00 21 1017.2
20190420160054 79 338 6.0 8.0 0.00 0.00 0.00 21 1017.2
20190420155551 78 45 6.0 10.0 0.00 0.00 0.00 21 1017.1
20190420155057 78 23 7.0 9.0 0.00 0.00 0.00 21 1017.1
20190420154551 78 23 7.0 10.0 0.00 0.00 0.00 21 1017.1
20190420154057 77 338 7.0 12.0 0.00 0.00 0.00 22 1017.1
20190420153554 77 338 6.0 12.0 0.00 0.00 0.00 22 1017.3
20190420153051 77 315 6.0 6.0 0.00 0.00 0.00 23 1017.3
20190420152551 77 23 6.0 10.0 0.00 0.00 0.00 22 1017.3
20190420152054 76 135 7.0 13.0 0.00 0.00 0.00 23 1017.4
20190420151551 76 315 8.0 13.0 0.00 0.00 0.00 23 1017.1
20190420151057 76 338 7.0 12.0 0.00 0.00 0.00 23 1017.1
20190420150557 75 270 7.0 10.0 0.00 0.00 0.00 24 1017.1
20190420150054 75 338 7.0 8.0 0.00 0.00 0.00 24 1017.2
20190420145557 75 315 7.0 9.0 0.00 0.00 0.00 25 1016.9
20190420145057 74 293 7.0 11.0 0.00 0.00 0.00 26 1016.9
20190420144551 74 293 7.0 11.0 0.00 0.00 0.00 26 1016.9
20190420144051 73 270 6.0 9.0 0.00 0.00 0.00 28 1016.9
20190420143554 73 315 6.0 10.0 0.00 0.00 0.00 28 1016.9
20190420143057 73 315 5.0 9.0 0.00 0.00 0.00 29 1016.9
20190420142551 72 315 4.0 9.0 0.00 0.00 0.00 30 1017.0
20190420142057 72 248 3.0 6.0 0.00 0.00 0.00 30 1017.0
20190420141551 72 0 3.0 6.0 0.00 0.00 0.00 30 1017.1
20190420141057 71 23 3.0 5.0 0.00 0.00 0.00 30 1017.2
20190420140557 71 315 3.0 5.0 0.00 0.00 0.00 30 1017.2
20190420140057 70 338 3.0 4.0 0.00 0.00 0.00 31 1017.2
20190420135554 70 68 3.0 5.0 0.00 0.00 0.00 31 1016.8
20190420135054 70 293 3.0 4.0 0.00 0.00 0.00 31 1016.8
20190420134557 69 338 3.0 5.0 0.00 0.00 0.00 31 1016.8
20190420134054 69 338 4.0 5.0 0.00 0.00 0.00 30 1016.9
20190420133557 69 315 4.0 6.0 0.00 0.00 0.00 30 1016.7
20190420133057 69 23 3.0 5.0 0.00 0.00 0.00 30 1016.7
20190420132557 69 315 3.0 5.0 0.00 0.00 0.00 30 1016.7
20190420132051 69 293 4.0 4.0 0.00 0.00 0.00 30 1016.8
20190420131557 69 315 4.0 8.0 0.00 0.00 0.00 30 1016.5
20190420131057 69 315 5.0 8.0 0.00 0.00 0.00 30 1016.5
20190420130557 69 315 5.0 8.0 0.00 0.00 0.00 30 1016.6
20190420130051 69 315 4.0 6.0 0.00 0.00 0.00 30 1016.6
20190420125557 69 0 4.0 8.0 0.00 0.00 0.00 30 1016.6
20190420125054 69 0 3.0 5.0 0.00 0.00 0.00 30 1016.6
20190420124551 69 338 3.0 4.0 0.00 0.00 0.00 30 1016.7
20190420124051 69 270 4.0 4.0 0.00 0.00 0.00 30 1016.7
20190420123557 69 315 4.0 5.0 0.00 0.00 0.00 30 1016.5
20190420123051 69 293 5.0 7.0 0.00 0.00 0.00 30 1016.5
20190420122554 69 315 5.0 7.0 0.00 0.00 0.00 30 1016.6
20190420122054 68 315 4.0 6.0 0.00 0.00 0.00 30 1016.6
20190420121554 68 270 4.0 6.0 0.00 0.00 0.00 30 1016.8
20190420121054 68 315 4.0 7.0 0.00 0.00 0.00 30 1016.9
20190420120554 68 315 4.0 5.0 0.00 0.00 0.00 31 1016.9
20190420120051 68 338 3.0 5.0 0.00 0.00 0.00 31 1016.9
20190420115557 68 315 3.0 5.0 0.00 0.00 0.00 31 1017.2
20190420115054 68 315 3.0 4.0 0.00 0.00 0.00 31 1017.3
20190420114554 68 338 2.0 4.0 0.00 0.00 0.00 31 1017.3
20190420114057 68 315 1.0 3.0 0.00 0.00 0.00 31 1017.4
20190420113551 67 338 2.0 3.0 0.00 0.00 0.00 31 1017.5
20190420113054 67 315 2.0 4.0 0.00 0.00 0.00 31 1017.6
20190420112557 67 270 2.0 3.0 0.00 0.00 0.00 32 1017.6
20190420112054 67 0 2.0 3.0 0.00 0.00 0.00 32 1017.7
20190420111551 67 315 2.0 2.0 0.00 0.00 0.00 32 1018.0
20190420111057 67 293 2.0 3.0 0.00 0.00 0.00 32 1018.0
20190420110551 67 338 3.0 5.0 0.00 0.00 0.00 32 1018.1
20190420110057 66 338 3.0 5.0 0.00 0.00 0.00 32 1018.1
20190420105551 66 315 2.0 5.0 0.00 0.00 0.00 33 1018.2
20190420105057 66 338 1.0 4.0 0.00 0.00 0.00 33 1018.2
20190420104557 66 23 0.0 1.0 0.00 0.00 0.00 33 1018.3
20190420104051 66 68 0.0 0.0 0.00 0.00 0.00 33 1018.3
20190420103557 66 135 0.0 0.0 0.00 0.00 0.00 32 1018.2
20190420103054 66 68 0.0 0.0 0.00 0.00 0.00 32 1018.3
20190420102554 66 180 0.0 0.0 0.00 0.00 0.00 32 1018.3
20190420102054 66 180 0.0 0.0 0.00 0.00 0.00 32 1018.3
20190420101554 66 113 0.0 0.0 0.00 0.00 0.00 32 1018.7
20190420101051 67 293 0.0 0.0 0.00 0.00 0.00 32 1018.7
20190420100557 67 293 0.0 0.0 0.00 0.00 0.00 32 1018.8
20190420100051 67 270 0.0 0.0 0.00 0.00 0.00 32 1018.8
20190420095557 67 315 0.0 1.0 0.00 0.00 0.00 31 1018.6
20190420095051 67 248 0.0 1.0 0.00 0.00 0.00 31 1018.7
20190420094554 67 248 1.0 1.0 0.00 0.00 0.00 31 1018.7
20190420094057 67 180 1.0 3.0 0.00 0.00 0.00 30 1018.7
20190420093557 67 158 1.0 3.0 0.00 0.00 0.00 30 1018.5
20190420093057 68 135 1.0 1.0 0.00 0.00 0.00 29 1018.5
20190420092557 68 68 2.0 4.0 0.00 0.00 0.00 29 1018.5
20190420092110 68 293 3.0 3.0 0.00 0.00 0.00 28 1018.6
20190420091557 68 270 2.0 3.0 0.00 0.00 0.00 28 1018.7
20190420091054 68 270 2.0 3.0 0.00 0.00 0.00 30 1018.7
20190420090554 68 270 2.0 2.0 0.00 0.00 0.00 30 1018.8
20190420090057 68 248 1.0 3.0 0.00 0.00 0.00 30 1018.8
20190420085554 68 203 0.0 2.0 0.00 0.00 0.00 29 1019.2
20190420085054 69 135 0.0 0.0 0.00 0.00 0.00 28 1019.3
20190420084557 69 203 0.0 0.0 0.00 0.00 0.00 27 1019.3
20190420084054 69 113 1.0 1.0 0.00 0.00 0.00 27 1019.3
20190420083554 69 0 1.0 3.0 0.00 0.00 0.00 27 1020.0
20190420083057 69 270 0.0 2.0 0.00 0.00 0.00 27 1020.0
20190420082557 69 270 0.0 0.0 0.00 0.00 0.00 26 1020.0
20190420082051 70 270 1.0 1.0 0.00 0.00 0.00 26 1020.1
20190420081554 70 270 2.0 3.0 0.00 0.00 0.00 26 1020.2
20190420081054 70 270 2.0 3.0 0.00 0.00 0.00 27 1020.2
20190420080557 70 270 1.0 3.0 0.00 0.00 0.00 27 1020.2
20190420080051 70 248 0.0 2.0 0.00 0.00 0.00 26 1020.2
20190420075557 70 248 0.0 0.0 0.00 0.00 0.00 26 1020.4
20190420075054 71 68 0.0 0.0 0.00 0.00 0.00 25 1020.4
20190420074551 71 270 0.0 0.0 0.00 0.00 0.00 25 1020.4
20190420074051 71 135 0.0 1.0 0.00 0.00 0.00 24 1020.5
20190420073551 71 135 0.0 2.0 0.00 0.00 0.00 24 1020.6
20190420073051 72 180 0.0 1.0 0.00 0.00 0.00 24 1020.6
20190420072557 72 248 0.0 0.0 0.00 0.00 0.00 24 1020.6
20190420072054 73 248 1.0 1.0 0.00 0.00 0.00 24 1020.7
20190420071557 73 270 1.0 2.0 0.00 0.00 0.00 24 1020.5
20190420071054 73 270 1.0 1.0 0.00 0.00 0.00 23 1020.5
20190420070554 73 270 1.0 1.0 0.00 0.00 0.00 22 1020.5
20190420070054 73 293 1.0 2.0 0.00 0.00 0.00 22 1020.5
20190420065555 74 23 1.0 2.0 0.00 0.00 0.00 22 1020.8
20190420065051 75 270 2.0 2.0 0.00 0.00 0.00 21 1020.8
20190420064554 75 248 2.0 2.0 0.00 0.00 0.00 21 1020.8
20190420064057 75 248 1.0 2.0 0.00 0.00 0.00 21 1020.9
20190420063557 75 270 1.0 2.0 0.00 0.00 0.00 21 1020.9
20190420063057 75 248 1.0 2.0 0.00 0.00 0.00 20 1021.0
20190420062551 76 248 1.0 2.0 0.00 0.00 0.00 20 1021.0
20190420062051 76 248 1.0 1.0 0.00 0.00 0.00 20 1021.0
20190420061555 76 180 1.0 2.0 0.00 0.00 0.00 20 1021.1
20190420061051 77 248 0.0 0.0 0.00 0.00 0.00 19 1021.2
20190420060554 77 248 0.0 1.0 0.00 0.00 0.00 18 1021.2
20190420060051 77 248 0.0 2.0 0.00 0.00 0.00 17 1021.2
20190420055554 77 180 0.0 2.0 0.00 0.00 0.00 18 1021.1
20190420055051 78 158 1.0 2.0 0.00 0.00 0.00 17 1021.1
20190420054551 78 180 2.0 2.0 0.00 0.00 0.00 17 1021.1
20190420054051 78 180 2.0 3.0 0.00 0.00 0.00 17 1021.1
20190420053557 78 225 2.0 3.0 0.00 0.00 0.00 17 1020.8
20190420053057 79 225 1.0 2.0 0.00 0.00 0.00 17 1020.8
20190420052557 79 225 1.0 1.0 0.00 0.00 0.00 17 1020.8
20190420052054 79 203 2.0 2.0 0.00 0.00 0.00 17 1020.8
20190420051551 79 180 2.0 2.0 0.00 0.00 0.00 17 1021.0
20190420051051 79 293 2.0 3.0 0.00 0.00 0.00 16 1021.0
20190420050554 79 203 1.0 3.0 0.00 0.00 0.00 16 1021.0
20190420050054 80 180 2.0 3.0 0.00 0.00 0.00 17 1021.0
20190420045551 80 225 1.0 2.0 0.00 0.00 0.00 17 1020.6
20190420045057 80 158 1.0 2.0 0.00 0.00 0.00 17 1020.6
20190420044557 80 225 1.0 2.0 0.00 0.00 0.00 16 1020.5
20190420044054 80 180 0.0 2.0 0.00 0.00 0.00 16 1020.5
20190420043551 80 158 0.0 1.0 0.00 0.00 0.00 16 1020.3
20190420043057 81 225 0.0 2.0 0.00 0.00 0.00 16 1020.3
20190420042557 81 158 1.0 2.0 0.00 0.00 0.00 16 1020.3
20190420042057 81 135 1.0 2.0 0.00 0.00 0.00 15 1020.3
20190420041554 81 113 0.0 1.0 0.00 0.00 0.00 16 1020.1
20190420041054 81 135 1.0 2.0 0.00 0.00 0.00 16 1020.1
20190420040557 81 135 1.0 2.0 0.00 0.00 0.00 16 1020.1
20190420040054 81 135 1.0 2.0 0.00 0.00 0.00 16 1020.1
20190420035554 81 68 1.0 0.0 0.00 0.00 0.00 17 1020.0
20190420035054 82 248 2.0 3.0 0.00 0.00 0.00 17 1020.0
20190420034551 82 248 2.0 3.0 0.00 0.00 0.00 17 1020.0
20190420034051 82 225 2.0 2.0 0.00 0.00 0.00 16 1020.0
20190420033554 83 248 2.0 2.0 0.00 0.00 0.00 16 1019.6
20190420033057 83 248 2.0 2.0 0.00 0.00 0.00 16 1019.6
20190420032557 83 248 2.0 3.0 0.00 0.00 0.00 16 1019.6
20190420032051 84 248 1.0 4.0 0.00 0.00 0.00 16 1019.6
20190420031557 84 248 1.0 2.0 0.00 0.00 0.00 15 1019.4
20190420031057 85 293 1.0 1.0 0.00 0.00 0.00 15 1019.4
20190420030554 85 225 1.0 2.0 0.00 0.00 0.00 14 1019.4
20190420030051 86 180 1.0 2.0 0.00 0.00 0.00 14 1019.4
20190420025557 86 248 1.0 3.0 0.00 0.00 0.00 14 1019.1
20190420025054 87 225 0.0 1.0 0.00 0.00 0.00 14 1019.0
20190420024554 87 248 0.0 2.0 0.00 0.00 0.00 14 1019.0
20190420024054 88 248 0.0 1.0 0.00 0.00 0.00 13 1019.0
20190420023554 89 270 0.0 1.0 0.00 0.00 0.00 13 1018.5
20190420023051 89 315 0.0 0.0 0.00 0.00 0.00 11 1018.5
20190420022554 90 45 0.0 0.0 0.00 0.00 0.00 10 1018.5
20190420022051 91 68 0.0 0.0 0.00 0.00 0.00 10 1018.5
20190420021557 92 68 0.0 0.0 0.00 0.00 0.00 10 1018.5
20190420021051 92 68 0.0 2.0 0.00 0.00 0.00 9 1018.5
20190420020554 93 45 0.0 1.0 0.00 0.00 0.00 9 1018.5
20190420020057 93 90 0.0 2.0 0.00 0.00 0.00 8 1018.4
20190420015557 94 45 0.0 2.0 0.00 0.00 0.00 8 1018.4
20190420015057 95 135 0.0 1.0 0.00 0.00 0.00 8 1018.4
20190420014551 95 68 0.0 1.0 0.00 0.00 0.00 8 1018.3
20190420014057 96 68 0.0 1.0 0.00 0.00 0.00 8 1018.3
20190420013557 97 68 0.0 1.0 0.00 0.00 0.00 7 1017.8
20190420013057 97 68 0.0 0.0 0.00 0.00 0.00 7 1017.7
20190420012554 98 23 0.0 1.0 0.00 0.00 0.00 7 1017.7
20190420012054 99 338 1.0 1.0 0.00 0.00 0.00 7 1017.6
20190420011557 99 0 2.0 3.0 0.00 0.00 0.00 6 1017.8
20190420011054 100 315 2.0 3.0 0.00 0.00 0.00 5 1017.7
20190420010554 100 45 2.0 3.0 0.00 0.00 0.00 5 1017.7
20190420010051 101 0 2.0 4.0 0.00 0.00 0.00 5 1017.7
20190420005554 101 90 2.0 5.0 0.00 0.00 0.00 4 1017.7
20190420005051 102 23 3.0 2.0 0.00 0.00 0.00 5 1017.7
20190420004551 102 45 3.0 3.0 0.00 0.00 0.00 5 1017.6